WA1NHP Weather Reports


time (UTC)temp
C
wind
direction
speed
KPH
gust
KPH
rain 1hr
cm
rain 24hr
cm
rain mn
cm
humidity
%
barometer
mb
20260506213404 13 179 8.0 25.7 0.00 0.48 0.48 96 1023.9
20260506212404 13 205 9.7 32.2 0.00 0.48 0.48 96 1023.9
20260506211404 13 205 9.7 20.9 0.00 0.48 0.48 96 1023.9
20260506210404 14 203 9.7 33.8 0.00 0.48 0.48 96 1023.9
20260506205403 14 208 16.1 27.4 0.00 0.48 0.48 96 1023.9
20260506204403 14 193 12.9 32.2 0.03 0.48 0.48 96 1023.9
20260506203404 14 204 11.3 27.4 0.05 0.48 0.48 96 1023.9
20260506202404 14 163 20.9 24.1 0.08 0.48 0.48 96 1023.9
20260506201404 14 199 11.3 27.4 0.13 0.48 0.48 96 1023.9
20260506200403 14 190 11.3 27.4 0.15 0.48 0.48 96 1023.9
20260506195403 14 208 9.7 20.9 0.18 0.48 0.48 96 1023.9
20260506194404 14 199 9.7 27.4 0.15 0.46 0.46 96 1023.9
20260506193404 14 202 9.7 25.7 0.15 0.43 0.43 96 1023.9
20260506192404 14 160 16.1 20.9 0.13 0.41 0.41 96 1023.9
20260506191403 14 192 9.7 22.5 0.10 0.36 0.36 96 1023.9
20260506190403 14 187 6.4 22.5 0.10 0.33 0.33 95 1023.9
20260506185403 14 165 8.0 25.7 0.10 0.30 0.30 95 1023.9
20260506184403 15 211 11.3 24.1 0.13 0.30 0.30 95 1023.9
20260506183404 15 183 14.5 19.3 0.15 0.28 0.28 95 1023.9
20260506182403 15 183 8.0 14.5 0.18 0.28 0.28 95 1023.9
20260506181404 15 178 8.0 16.1 0.20 0.25 0.25 95 1023.9
20260506180404 15 194 4.8 16.1 0.20 0.23 0.23 94 1023.9
20260506175403 15 182 8.0 19.3 0.20 0.20 0.20 94 1023.9
20260506174404 15 182 4.8 16.1 0.18 0.18 0.18 94 1023.9
20260506173403 15 193 4.8 16.1 0.13 0.13 0.13 93 1023.9
20260506172404 15 207 4.8 14.5 0.10 0.10 0.10 92 1023.9
20260506171404 15 188 4.8 14.5 0.05 0.05 0.05 90 1023.9
20260506170403 15 189 6.4 20.9 0.03 0.03 0.03 89 1023.9
20260506165403 16 193 4.8 16.1 0.00 0.00 0.00 86 1023.9
20260506164403 16 215 6.4 24.1 0.00 0.00 0.00 84 1023.9
20260506163403 16 204 8.0 20.9 0.00 0.00 0.00 83 1023.9
20260506162403 17 190 11.3 29.0 0.00 0.00 0.00 80 1023.9
20260506161404 17 194 11.3 24.1 0.00 0.00 0.00 79 1023.9
20260506160404 17 198 9.7 22.5 0.00 0.00 0.00 79 1023.9
20260506155404 17 192 9.7 25.7 0.00 0.00 0.00 80 1023.9
20260506154404 17 202 9.7 20.9 0.00 0.00 0.00 80 1023.9
20260506153403 17 223 8.0 19.3 0.00 0.00 0.00 80 1023.9
20260506152403 17 213 9.7 19.3 0.00 0.00 0.00 80 1023.9
20260506151404 17 238 6.4 16.1 0.00 0.00 0.00 80 1023.9
20260506150404 17 201 11.3 22.5 0.00 0.00 0.00 80 1023.9
20260506145404 17 187 8.0 27.4 0.00 0.00 0.00 80 1023.9
20260506144403 17 168 9.7 20.9 0.00 0.00 0.00 80 1023.9
20260506143403 17 136 4.8 32.2 0.00 0.00 0.00 79 1023.9
20260506142404 17 170 14.5 27.4 0.00 0.00 0.00 78 1023.9
20260506141404 17 216 9.7 32.2 0.00 0.00 0.00 77 1023.9
20260506140404 18 198 14.5 33.8 0.00 0.00 0.00 76 1023.9
20260506135404 17 210 8.0 20.9 0.00 0.00 0.00 79 1023.9
20260506134403 17 196 11.3 24.1 0.00 0.00 0.00 79 1023.9
20260506133403 17 205 4.8 19.3 0.00 0.00 0.00 80 1023.9
20260506132403 17 168 3.2 19.3 0.00 0.00 0.00 81 1023.9
20260506131404 16 205 9.7 19.3 0.00 0.00 0.00 83 1023.9
20260506130403 16 211 4.8 27.4 0.00 0.00 0.00 84 1023.9
20260506125404 15 213 6.4 24.1 0.00 0.00 0.00 85 1023.9
20260506124404 15 194 11.3 19.3 0.00 0.00 0.00 85 1023.9
20260506123403 15 236 8.0 24.1 0.00 0.00 0.00 85 1023.9
20260506122404 15 198 4.8 22.5 0.00 0.00 0.00 86 1023.9
20260506121403 15 186 8.0 19.3 0.00 0.00 0.00 86 1023.9
20260506120404 15 170 4.8 16.1 0.00 0.00 0.00 87 1023.9
20260506115404 14 228 4.8 16.1 0.00 0.00 0.00 88 1023.9
20260506114404 14 192 11.3 20.9 0.00 0.00 0.00 88 1023.9
20260506113404 14 157 3.2 24.1 0.00 0.00 0.00 88 1023.9
20260506112404 13 175 11.3 25.7 0.00 0.00 0.00 89 1023.9
20260506111404 13 182 9.7 25.7 0.00 0.00 0.00 89 1023.9
20260506110403 13 193 8.0 19.3 0.00 0.00 0.00 89 1023.9
20260506105403 13 179 3.2 27.4 0.00 0.00 0.00 89 1023.9
20260506104403 13 196 4.8 27.4 0.00 0.00 0.00 89 1023.9
20260506103404 13 186 9.7 20.9 0.00 0.00 0.00 89 1023.9
20260506102404 12 169 8.0 19.3 0.00 0.00 0.00 90 1023.9
20260506101404 12 160 4.8 25.7 0.00 0.00 0.00 89 1023.9
20260506100404 12 144 4.8 19.3 0.00 0.00 0.00 89 1023.9
20260506095404 12 203 6.4 19.3 0.00 0.00 0.00 89 1023.9
20260506094404 12 191 9.7 19.3 0.00 0.00 0.00 89 1023.9
20260506093404 12 189 9.7 19.3 0.00 0.00 0.00 89 1023.9
20260506092403 12 189 4.8 19.3 0.00 0.00 0.00 89 1023.9
20260506091404 12 159 8.0 20.9 0.00 0.00 0.00 88 1023.9
20260506090405 13 178 4.8 19.3 0.00 0.00 0.00 88 1023.9
20260506085404 12 171 9.7 19.3 0.00 0.00 0.00 88 1023.9
20260506084404 12 170 9.7 20.9 0.00 0.00 0.00 88 1023.9
20260506083403 12 187 6.4 20.9 0.00 0.00 0.00 87 1023.9
20260506082403 12 192 8.0 12.9 0.00 0.00 0.00 87 1023.9
20260506081403 12 168 3.2 16.1 0.00 0.00 0.00 87 1023.9
20260506080404 12 161 1.6 11.3 0.00 0.00 0.00 86 1023.9
20260506073404 13 198 3.2 8.0 0.00 0.00 0.00 83 1023.9
20260506072404 13 169 4.8 14.5 0.00 0.00 0.00 83 1023.9
20260506071403 13 225 4.8 11.3 0.00 0.00 0.00 82 1023.9
20260506070404 13 191 3.2 19.3 0.00 0.00 0.00 81 1023.9
20260506062404 14 219 4.8 12.9 0.00 0.00 0.00 79 1023.9
20260506061405 14 161 3.2 8.0 0.00 0.00 0.00 78 1023.9
20260506060404 14 196 6.4 16.1 0.00 0.00 0.00 78 1023.9
20260506051404 15 200 9.7 20.9 0.00 0.00 0.00 76 1023.9
20260506050404 15 190 8.0 16.1 0.00 0.00 0.00 75 1023.9
20260506044404 15 196 8.0 20.9 0.00 0.00 0.00 75 1023.9
20260506043404 15 226 4.8 19.3 0.00 0.00 0.00 75 1023.9
20260506042404 15 197 11.3 27.4 0.00 0.00 0.00 74 1023.9
20260506041404 15 194 9.7 25.7 0.00 0.00 0.00 74 1023.9
20260506040404 15 197 9.7 25.7 0.00 0.00 0.00 74 1023.9
20260506035404 15 206 6.4 14.5 0.00 0.00 0.00 74 1023.9
20260506034404 15 203 4.8 12.9 0.00 0.00 0.00 75 1023.9
20260506033404 15 206 8.0 20.9 0.00 0.00 0.00 74 1023.9
20260506032404 15 188 8.0 19.3 0.00 0.00 0.00 74 1023.9
20260506031403 16 176 6.4 19.3 0.00 0.00 0.00 74 1023.9
20260506030403 16 198 3.2 16.1 0.00 0.00 0.00 74 1023.9
20260506025404 16 179 1.6 16.1 0.00 0.00 0.00 75 1023.9
20260506024404 16 161 4.8 12.9 0.00 0.00 0.00 75 1023.9